Charlottetown, Prince Edward Island

4:40 PM AST on December 16, 2017 (GMT -0400)
Charlottetown

Weather History for CYYG - January, 2013

Change the Weather History Date:

Saturday, January 19, 2013

  Actual Average Record
Temperature  
Mean Temperature 12 °F -  
Max Temperature 25 °F 26 °F 46 °F (1999)
Min Temperature -2 °F 10 °F -5 °F (2003)
Degree Days  
Heating Degree Days 54    
Moisture  
Dew Point 9 °F    
Average Humidity 75    
Maximum Humidity 100    
Minimum Humidity 40    
Precipitation  
Precipitation 0.08 in 0.13 in - ()
Sea Level Pressure  
Sea Level Pressure 30.13 in    
Wind  
Wind Speed 8 mph ()    
Max Wind Speed 20 mph    
Max Gust Speed 20 mph    
Visibility 8.6 miles    
Events Snow    
Averages and records for this station are not official NWS values.
T = Trace of Precipitation, MM = Missing Value Source: Averaged Metar Reports

Daily Weather History Graph

Daily Weather History Graph

Search for Another Location

Airport or City:

Trip Planner

Search our weather history database for the weather conditions in past years. The results will help you decide how hot, cold, wet, or windy it might be!

Date:

Astronomy

Jan. 19, 2013 Rise Set
Actual Time 7:48 AM AST 4:58 PM AST
Civil Twilight 7:15 AM AST 5:31 PM AST
Nautical Twilight 6:38 AM AST 6:08 PM AST
Astronomical Twilight 6:02 AM AST 6:44 PM AST
Moon 11:26 AM AST (1/19) 1:13 AM AST (1/19)
Length of Visible Light 10h 16m
Length of Day
9h 10m
First Quarter, 56% of the Moon is Illuminated
Jan 19
First Quarter
Jan 27
Full
Feb 3
Last Quarter
Feb 10
New
Feb 17
First Quarter

Hourly Weather History & Observations

Time (AST) Temp. Windchill Dew Point Humidity Pressure Visibility Wind Dir Wind Speed Gust Speed Precip Events Conditions
12:00 AM 1.4 °F -15.3 °F -11.2 °F 56% 30.27 in 15.0 mi WSW 11.5 mph - N/A   Clear
1:00 AM 1.4 °F -14.5 °F -11.2 °F 56% 30.27 in 15.0 mi West 10.4 mph 19.6 mph N/A   Clear
2:00 AM 3 °F - -10 °F 40% 30.29 in 15 mi WSW 8.1 mph - -  
2:00 AM 3.2 °F -10.3 °F -9.4 °F 56% 30.28 in 15.0 mi WSW 8.1 mph - N/A   Clear
3:00 AM 1.4 °F -11.3 °F -9.4 °F 61% 30.30 in 15.0 mi WSW 6.9 mph - N/A   Clear
4:00 AM 3.2 °F -11.3 °F -7.6 °F 61% 30.31 in 15.0 mi WSW 9.2 mph - N/A   Clear
5:00 AM 3.2 °F -11.3 °F -7.6 °F 61% 30.30 in 15.0 mi WSW 9.2 mph - N/A   Clear
6:00 AM 5.0 °F -9.1 °F -7.6 °F 56% 30.30 in 15.0 mi WSW 9.2 mph - N/A   Clear
7:00 AM 5.0 °F -5.6 °F -5.8 °F 61% 30.30 in 15.0 mi SW 5.8 mph - N/A   Partly Cloudy
8:00 AM 8 °F - -5 °F 41% 30.30 in 15 mi SW 5.8 mph - -   Scattered Clouds
8:00 AM 8.6 °F -2.6 °F -4.0 °F 57% 30.30 in 15.0 mi SSW 6.9 mph - N/A   Mostly Cloudy
9:00 AM 10.4 °F -3.3 °F -0.4 °F 62% 30.28 in 15.0 mi SSW 10.4 mph - N/A   Overcast
9:34 AM 12.2 °F -1.0 °F 1.4 °F 62% 30.28 in 12.0 mi South 10.4 mph - N/A Snow Light Snow
10:00 AM 12.2 °F -1.8 °F 5.0 °F 73% 30.27 in 5.0 mi South 11.5 mph - N/A Snow Light Snow
11:00 AM 14.0 °F -2.0 °F 6.8 °F 73% 30.24 in 8.0 mi South 16.1 mph - N/A Snow Light Snow
12:00 PM 17.6 °F 1.3 °F 12.2 °F 79% 30.17 in 8.0 mi South 19.6 mph - N/A Snow Light Snow
2:00 PM 19 °F - 14 °F 74% 30.04 in 2 mi SSE 11.5 mph - - Snow Light Snow
2:00 PM 19.4 °F 7.2 °F 14.0 °F 80% 30.04 in 2.5 mi SSE 11.5 mph - N/A Snow Light Snow
2:12 PM 19.4 °F 7.2 °F 15.8 °F 86% 30.03 in 1.0 mi SSE 11.5 mph - N/A Snow Light Snow
2:33 PM 19.4 °F 10.4 °F 15.8 °F 86% 30.03 in 2.5 mi SSE 6.9 mph - N/A Snow Light Snow
3:00 PM 19.4 °F 9.5 °F 17.6 °F 93% 30.01 in 2.5 mi SSE 8.1 mph - N/A Snow Light Snow
3:20 PM 21.2 °F 13.6 °F 19.4 °F 93% 30.00 in 1.5 mi SSE 5.8 mph - N/A Snow Light Snow
4:00 PM 23.0 °F 13.9 °F 23.0 °F 100% 29.98 in 1.5 mi South 8.1 mph - N/A Snow Light Snow
4:09 PM 23.0 °F 13.1 °F 23.0 °F 100% 29.98 in 0.8 mi South 9.2 mph - N/A Snow Light Snow
4:19 PM 24.8 °F 16.1 °F 23.0 °F 93% 29.98 in 1.5 mi SSW 8.1 mph - N/A Snow Light Snow
5:00 PM 24.8 °F 15.3 °F 23.0 °F 93% 29.98 in 2.0 mi SW 9.2 mph - N/A Snow Light Snow
5:22 PM 24.8 °F 14.0 °F 23.0 °F 93% 29.98 in 4.0 mi WSW 11.5 mph 18.4 mph N/A Snow Light Snow
5:46 PM 26.6 °F 19.1 °F 23.0 °F 86% 29.99 in 6.0 mi WSW 6.9 mph - N/A Snow Light Snow
6:00 PM 26.6 °F 16.2 °F 23.0 °F 86% 29.99 in 6.0 mi WSW 11.5 mph - N/A Snow Light Snow
7:00 PM 24.8 °F 17.9 °F 23.0 °F 93% 30.01 in 6.0 mi WSW 5.8 mph - N/A Snow Light Snow
8:00 PM 25 °F - 22 °F 83% 30.01 in 6 mi West 8.1 mph - - Snow Light Snow
8:00 PM 24.8 °F 15.3 °F 21.2 °F 86% 30.01 in 6.0 mi West 9.2 mph - N/A Snow Light Snow
9:00 PM 23.0 °F 14.7 °F 19.4 °F 86% 30.04 in 10.0 mi West 6.9 mph - N/A Snow Light Snow
10:00 PM 23.0 °F 15.8 °F 19.4 °F 86% 30.07 in 10.0 mi WNW 5.8 mph - N/A Snow Light Snow
11:00 PM 23.0 °F 15.8 °F 19.4 °F 86% 30.08 in 15.0 mi NNW 5.8 mph - N/A Snow Light Snow